Regional Weather Roundup
Issued by NWS

Home | Current Version | Previous Version | Graphics & Text | Print | Product List | Glossary On
Versions: 1 2 3 4 5 6 7 8 9 10 11 12 13 14 15 16 17 18 19 20 21 22 23 24 25 26 27 28 29 30 31 32 33 34 35 36 37 38 39 40 41 42 43 44 45 46 47 48 49 50
000
ASUS43 KFSD 280010
RWRSD

WEATHER ROUNDUP FOR SOUTH DAKOTA
NATIONAL WEATHER SERVICE SIOUX FALLS SD
600 PM CST MON FEB 27 2017

NOTE: "FAIR" INDICATES FEW OR NO CLOUDS BELOW 12,000 FEET WITH NO
SIGNIFICANT WEATHER AND/OR OBSTRUCTIONS TO VISIBILITY.


SDZ001>005-009-010-012>017-280100-
NORTHWEST AND NORTH CENTRAL SOUTH DAKOTA

CITY           SKY/WX    TMP DP  RH WIND       PRES   REMARKS
BUFFALO          N/A     31  19  61 E17       29.58R WCI  19
FAITH            N/A     33  22  63 NE10      29.66R WCI  25
MOBRIDGE       CLOUDY    32  24  72 N14       29.68R WCI  22
$$

SDZ012>016-024>037-041>051-057-063-072>074-280100-
SOUTHWEST AND SOUTH CENTRAL SOUTH DAKOTA

CITY           SKY/WX    TMP DP  RH WIND       PRES   REMARKS
RAPID CTY ARPT CLOUDY    37  17  44 N8        29.61R
PIERRE         CLOUDY    41  20  43 N13       29.64R
CUSTER         CLOUDY    28  20  71 NE8       29.56R WCI  20
ELLSWORTH AFB  CLOUDY    38  13  36 N9        29.61R
PHILIP         CLOUDY    44  26  49 W3        29.64R
PINE RIDGE     CLOUDY    35  24  64 W5        29.62R
SPEARFISH      FAIR      34  18  51 SE5       29.62R WCI  30
WINNER         FAIR      43  31  62 S10       29.65R
$$

SDZ004>011-016>023-039-040-280100-
NORTHEAST SOUTH DAKOTA

CITY           SKY/WX    TMP DP  RH WIND       PRES   REMARKS
ABERDEEN       CLOUDY    38  20  48 N9        29.73R
WATERTOWN      CLOUDY    38  26  62 S8        29.71R
BROOKINGS      PTCLDY    41  25  53 S12       29.73R
SISSETON         N/A     37  31  78 CALM      29.73R
$$

SDZ017-020-022-023-036>040-048>070-280100-
SOUTHEAST SOUTH DAKOTA

CITY           SKY/WX    TMP DP  RH WIND       PRES   REMARKS
SIOUX FALLS    MOCLDY    41  30  65 S9        29.76S
HURON          CLOUDY    45  29  53 S10       29.69R
CHAMBERLAIN    CLEAR     44  32  62 S7        29.66F
MITCHELL       CLEAR     43  29  57 S10       29.72S
YANKTON        PTCLDY    41  28  60 E8        29.73F
$$

ABBREVIATIONS USED IN REMARKS
   TC - TEMPERATURE IN CELSIUS
  WCI - WIND CHILL INDEX
   HX - HEAT INDEX
  VSB - VISIBILITY




USA.gov is the U.S. government's official web portal to all federal, state and local government web resources and services.